Tracking 30106 objects as of 23-Jan-2025
HD Live streaming from Space Station
objects crossing your sky now

STARLINK-2484

Track STARLINK-2484 now!
10-day predictions
STARLINK-2484 is classified as:


NORAD ID: 48141
Int'l Code: 2021-027BB
Perigee: 370.2 km
Apogee: 371.4 km
Inclination: 53.0 °
Period: 91.8 minutes
Semi major axis: 6741 km
RCS: Unknown
Launch date: April 7, 2021
Source: United States (US)
Launch site: AIR FORCE EASTERN TEST RANGE (AFETR)
Your satellite tracking list
Your tracking list is empty




NASA's NSSDC Master Catalog

Two Line Element Set (TLE):
1 48141U 21027BB  25023.16667824  .01188892  00000-0  93528-2 0  9998
2 48141  53.0488 200.1986 0000901  60.8311 181.2031 15.68330972210343
Source of the keplerian elements: AFSPC